Regional Weather Roundup
Issued by NWS

Home | Current Version | Previous Version | Text Only | Print | Product List | Glossary Off
Versions: 1 2 3 4 5 6 7 8 9 10 11 12 13 14 15 16 17 18 19 20 21 22 23 24 25 26 27 28 29 30 31 32 33 34 35 36 37 38 39 40 41 42 43 44 45 46 47 48 49 50

000
ASUS45 KSLC 300710
RWRUT

UTAH REGIONAL WEATHER ROUNDUP
NATIONAL WEATHER SERVICE SALT LAKE CITY UT
100 AM MDT WED JUL 30 2014

UTZ001>011-023>025-300800-

NORTHERN UTAH

CITY           SKY/WX    TMP DP  RH WIND       PRES   REMARKS
HILL AFB       LGT RAIN  64  61  88 N5        30.20S
LOGAN          LGT RAIN  63  61  93 VRB3      30.22R
OGDEN          LGT RAIN  66  62  87 NE10      30.18F
PROVO AIRPORT  PTCLDY    63  55  77 E3        30.21S
SALT LAKE CITY CLOUDY    69  61  75 SE8       30.16S
VERNAL         CLOUDY    62  57  83 W5        30.24S
WENDOVER       MOCLDY    72  55  56 N6        30.19S
HEBER CITY     HVY RAIN  59  57  94 CALM      30.26S
WEST JORDAN    PTCLDY    70  66  88 CALM      30.19F

$$

UTZ012>022-026-027-300800-

SOUTHERN UTAH

CITY           SKY/WX    TMP DP  RH WIND       PRES   REMARKS
BRYCE CANYON   MOCLDY    53  51  93 CALM      30.37S
CEDAR CITY     CLOUDY    64  60  87 CALM      30.23S
MILFORD        PTCLDY    62  58  86 W3        30.20S
MOAB/CYNLANDS  CLEAR     65  60  84 SE6       30.15F
PRICE          CLOUDY    64  54  69 SW3       30.25S
ST GEORGE      PTSUNNY   84  54  34 NE6       30.03S
KANAB            N/A     70  54  56 NW6       30.22R

$$

REGIONAL REPORTS     COLORADO/ARIZONA

CITY           SKY/WX    TMP DP  RH WIND       PRES   REMARKS
CRAIG, CO      CLOUDY    55 N/A N/A SW5       30.29S
GRAND JUNCTION CLOUDY    63  57  81 E8        30.20F
RIFLE          CLOUDY    60  57  89 CALM      30.26F
MONTROSE       MOCLDY    62  57  83 E3        30.28F
CORTEZ         CLOUDY    63  56  78 NE3       30.24S
PAGE, AZ       PTCLDY    82  51  34 NW5       30.13R
GRAND CANYON   CLEAR     57  50  77 CALM      30.32R
KINGMAN        CLEAR     79  49  34 S7        30.06F
FLAGSTAFF      CLEAR     64  47  53 W3        30.35S

$$

REGIONAL REPORTS    NEVADA/IDAHO/WYOMING

CITY           SKY/WX    TMP DP  RH WIND       PRES   REMARKS
LAS VEGAS, NV  PTCLDY    90  53  28 W7        29.91S
ELY            MOCLDY    55  55 100 S6        30.31F
ELKO           CLOUDY    67  49  52 NE10      30.28F
POCATELLO, ID  CLEAR     61  56  83 S7        30.21S
BURLEY         CLOUDY    65  54  67 S3        30.19F
EVANSTON, WY   LGT RAIN  56  54  93 E13       30.34S
ROCK SPRINGS   CLOUDY    57  52  83 NE10      30.35S

$$


USA.gov is the U.S. government's official web portal to all federal, state and local government web resources and services.